Location: Unspecified
(0.0000°N, 0.0000°E)
Time: 15:37:22
(UTC+00:00)

Vanguard 3 - Visible Passes

Search period start: 06 February 2016 00:00
Search period end: 16 February 2016 00:00
Orbit: 508 x 3268 km, 33.3° (Epoch: 06 February)

Date Brightness Start Highest point End Pass type
(mag) Time Alt. Az. Time Alt. Az. Time Alt. Az.
06 Feb 8.8 20:22:49 10° SW 20:39:42 74° SE 20:41:19 67° E visible
06 Feb 10.7 22:42:35 10° W 22:45:57 18° W 22:45:57 18° W visible
07 Feb 9.7 19:06:06 10° SW 19:24:04 52° SSE 19:32:18 24° E visible
07 Feb 9.3 21:24:14 10° WSW 21:36:57 54° W 21:36:57 54° W visible
08 Feb 8.9 20:06:42 10° SW 20:24:36 85° SE 20:27:58 57° ENE visible
08 Feb 10.5 22:27:32 10° W 22:32:37 20° W 22:32:37 20° W visible
09 Feb 9.8 18:49:53 10° SW 19:08:55 60° SSE 19:19:01 19° ENE visible
09 Feb 9.3 21:08:33 10° WSW 21:23:40 53° NW 21:23:40 53° NW visible
10 Feb 9.2 19:50:41 10° SW 20:09:19 84° NW 20:14:45 43° NE visible
10 Feb 10.5 22:12:35 10° W 22:19:24 22° WNW 22:19:24 22° WNW visible
11 Feb 9.8 18:33:46 10° SW 18:53:34 70° SE 19:05:52 14° ENE visible
11 Feb 9.5 20:52:58 10° WSW 21:08:49 47° NW 21:10:30 45° NNW visible
12 Feb 9.6 19:34:47 10° WSW 19:53:54 74° NW 20:01:38 31° NE visible
12 Feb 10.4 21:57:45 10° W 22:06:17 22° NW 22:06:17 22° NW visible
13 Feb 9.9 18:17:47 10° SW 18:38:03 79° SE 18:52:15 10° ENE visible
13 Feb 9.8 20:37:30 10° WSW 20:53:31 42° NW 20:57:26 35° N visible
14 Feb 9.9 19:19:00 10° WSW 19:38:21 66° NW 19:48:34 21° NE visible
14 Feb 10.5 21:43:05 10° W 21:53:07 20° NW 21:53:14 20° NW visible
15 Feb 10.1 18:01:57 10° SW 18:22:23 88° SE 18:37:31 10° NE visible
15 Feb 10.1 20:22:11 10° W 20:38:11 37° NW 20:44:22 26° N visible
